TimePDT,TemperatureF,Dew PointF,Humidity,Sea Level PressureIn,VisibilityMPH,Wind Direction,Wind SpeedMPH,Gust SpeedMPH,PrecipitationIn,Events,Conditions,WindDirDegrees,DateUTC
12:53 AM,51.1,37.9,61,30.09,10.0,Calm,Calm,-,N/A,,Clear,0,2012-10-03 07:53:00
1:53 AM,52.0,37.9,59,30.10,10.0,North,3.5,-,N/A,,Clear,350,2012-10-03 08:53:00
3:53 AM,45.0,37.9,76,30.11,10.0,Calm,Calm,-,N/A,,Clear,0,2012-10-03 10:53:00
4:53 AM,45.0,37.9,76,30.11,10.0,Calm,Calm,-,N/A,,Clear,0,2012-10-03 11:53:00
5:53 AM,43.0,37.9,82,30.12,10.0,Calm,Calm,-,N/A,,Clear,0,2012-10-03 12:53:00
6:53 AM,42.1,37.9,85,30.12,10.0,Calm,Calm,-,N/A,,Clear,0,2012-10-03 13:53:00
7:53 AM,42.1,37.0,82,30.13,10.0,Calm,Calm,-,N/A,,Clear,0,2012-10-03 14:53:00
8:53 AM,46.9,39.9,77,30.13,10.0,Calm,Calm,-,N/A,,Clear,0,2012-10-03 15:53:00
9:53 AM,52.0,41.0,66,30.13,10.0,NNE,5.8,-,N/A,,Clear,20,2012-10-03 16:53:00
10:53 AM,55.0,42.1,62,30.11,10.0,Variable,4.6,-,N/A,,Clear,0,2012-10-03 17:53:00
11:53 AM,57.9,42.1,56,30.09,10.0,Variable,3.5,-,N/A,,Clear,0,2012-10-03 18:53:00
12:53 PM,64.9,42.1,43,30.07,10.0,Variable,4.6,-,N/A,,Clear,0,2012-10-03 19:53:00
1:53 PM,68.0,39.9,36,30.04,10.0,North,9.2,-,N/A,,Clear,360,2012-10-03 20:53:00
2:53 PM,71.1,39.0,31,30.01,10.0,North,8.1,-,N/A,,Clear,10,2012-10-03 21:53:00
3:53 PM,75.0,35.1,23,29.99,10.0,NNE,9.2,-,N/A,,Clear,20,2012-10-03 22:53:00
4:53 PM,75.9,30.9,19,29.98,10.0,NNW,6.9,-,N/A,,Clear,340,2012-10-03 23:53:00
5:53 PM,75.0,28.9,18,29.97,10.0,NNW,5.8,-,N/A,,Clear,340,2012-10-04 00:53:00
6:53 PM,71.1,26.1,19,29.98,10.0,North,6.9,-,N/A,,Clear,360,2012-10-04 01:53:00
7:53 PM,66.9,25.0,21,29.99,10.0,Variable,3.5,-,N/A,,Clear,0,2012-10-04 02:53:00
8:53 PM,64.9,27.0,24,30.00,10.0,North,4.6,-,N/A,,Clear,350,2012-10-04 03:53:00
9:53 PM,61.0,28.9,30,30.02,10.0,North,3.5,-,N/A,,Clear,360,2012-10-04 04:53:00
10:53 PM,55.9,30.0,37,30.03,10.0,Calm,Calm,-,N/A,,Clear,0,2012-10-04 05:53:00
11:53 PM,52.0,32.0,47,30.05,10.0,Calm,Calm,-,N/A,,Clear,0,2012-10-04 06:53:00